ONEWEB-0151

Last updated on April 25, 2021, 12:02 a.m. UTC

1 48066U 21025AA  21114.58336806 -.01075664  00000-0 -45289-1 0  9992
2 48066  87.4236 339.3468 0007855 138.1138 129.9022 15.26307658  1764
UTC
Height (km)
Latitude
Longitude
Inclination
Orbital Period
UTC large
Height (km)
Speed (km/s)
/
Latitude / Longitude
Inclination (degrees)
Orbital Period (minutes)
Azimuth
Elevation
Range (km)
Doppler Factor
iOS Compass Heading
iOS Angle

Next 30 passes for location: Hong Kong

Rise time Rise Azimuth (degrees) Set time Set Azimuth (degrees) Duration Max altitude (degrees)

No matching passes for this satellites